JILIN-01 GAOFEN 3D 29 (52446 NORAD) Tracking and Keplerian Element Data

This shows tracking and keplerian element data for the satellite.

Feedback or suggestion? Click here.




ElementValue
Catalog52446
NameJILIN-01 GAOFEN 3D 29
Epoch Orbit634
Epoch Day167.0603265
Epoch Year2022
RAAN231.7382
Inclination97.6815
Eccentricity0.0016052
Argument of Perigee126.1162
Mean Anonmoly327.1212
Mean Motion15.09813613
Decay Rate3.743E-05
L11 52446U 22048D 22167.06032650 .00003743 00000+0 23496-3 0 9990
L22 52446 97.6815 231.7382 0016052 126.1162 327.1212 15.09813613 6346

Live tracking and technical data element details for JILIN-01 GAOFEN 3D 29 (NORAD 52446). JILIN-01 GAOFEN 3D 29 can be tracked NOW for your location showing map with azimuth and elevation plus other details from your city location.

Track the satellite on the map from your city or location and see movement details for azimuth, elevation, latitude, longitude, range, height, and movement on the map or in text.







IsCatalogInMostPopularTable: catalog: 52446, numindb: 8
Update: records affected: 1



GetName: 52446 JILIN-01 GAOFEN 3D 29

Hit Count: updated at: Sat, 25 Jun 2022 04:51:14 GMT